Regional Weather Roundup
Issued by NWS

Home | Current Version | Previous Version | Graphics & Text | Print | Product List | Glossary Off
Versions: 1 2 3 4 5 6 7 8 9 10 11 12 13 14 15 16 17 18 19 20 21 22 23 24 25 26 27 28 29 30 31 32 33 34 35 36 37 38 39 40 41 42 43 44 45 46 47 48 49 50

000
ASUS43 KTOP 030559
RWRKS

WEATHER ROUNDUP FOR KANSAS
NATIONAL WEATHER SERVICE GOODLAND KS
1200 AM CST TUE MAR 03 2015

NOTE:  "FAIR" INDICATES FEW OR NO CLOUDS BELOW 12,000 FEET WITH NO
SIGNIFICANT WEATHER AND/OR OBSTRUCTIONS TO VISIBILITY.

KSZ001>006-013>018-027>032-041>047-030700-
NORTHWEST KANSAS

CITY           SKY/WX    TMP DP  RH WIND       PRES   REMARKS
GOODLAND       FAIR      33  31  92 S21       29.54F WCI  21
6HR MIN TEMP:  30; 6HR MAX TEMP:  33;

HAYS           FAIR      30  19  64 S14       29.74F WCI  20
HILL CITY      FAIR      30  24  78 S15G21    29.67F WCI  19
6HR MIN TEMP:  29; 6HR MAX TEMP:  33;

RUSSELL        FAIR      31  25  78 S18       29.75F WCI  19
6HR MIN TEMP:  30; 6HR MAX TEMP:  33;

$$

KSZ061>065-074>080-084>089-030700-
SOUTHWEST KANSAS

CITY           SKY/WX    TMP DP  RH WIND       PRES   REMARKS
DODGE CITY     FAIR      34  28  79 S21G31    29.74F WCI  22
6HR MIN TEMP:  31; 6HR MAX TEMP:  35;

ELKHART          N/A     38  27  65 S24         N/A  WCI  27
GARDEN CITY    FAIR      34  31  88 S30G39    29.68F WCI  20
6HR MIN TEMP:  32; 6HR MAX TEMP:  34;

GREAT BEND     FAIR      34  25  69 S23G29    29.77F WCI  22
LIBERAL        FAIR      36  30  80 S21       29.78F WCI  24
$$

KSZ066>073-081>083-090>101-030700-
SOUTHEAST KANSAS

CITY           SKY/WX    TMP DP  RH WIND       PRES   REMARKS
CHANUTE        CLOUDY    34  33  96 S16       30.00F FOG     WCI  24
6HR MIN TEMP:  33; 6HR MAX TEMP:  34;

COFFEYVILLE    CLOUDY    35  33  92 S12       30.04F FOG     WCI  27
6HR MIN TEMP:  34; 6HR MAX TEMP:  35;

HUTCHINSON     CLOUDY    32  29  88 S23G31    29.86F FOG     WCI  19
6HR MIN TEMP:  31; 6HR MAX TEMP:  33;

MEDICINE LODGE   N/A     33  29  85 S13       29.89F WCI  24
NEWTON         CLOUDY    32  27  80 S20       29.90F WCI  20
PARSONS        CLOUDY    35  34  96 S9        30.02F FOG
6HR MIN TEMP:  34; 6HR MAX TEMP:  36;

WICHITA INTL   CLOUDY    33  31  92 S23G30    29.91F FOG     WCI  21
6HR MIN TEMP:  31; 6HR MAX TEMP:  33;

WICHITA JABRA  CLOUDY    32  31  96 S21G28    29.91F FOG     WCI  20
6HR MIN TEMP:  31; 6HR MAX TEMP:  32;

WICHITA MCCONL CLOUDY    32  32 100 S20       29.91F FOG     WCI  20
WINFIELD       CLOUDY    35  34  96 S17G24    29.98F WCI  25
6HR MIN TEMP:  31; 6HR MAX TEMP:  35;

$$

KSZ007>012-019>026-033>040-048>060-102>105-030700-
NORTHEAST KANSAS

CITY           SKY/WX    TMP DP  RH WIND       PRES   REMARKS
CONCORDIA      FAIR      31  26  82 SE15G22   29.83F WCI  20
6HR MIN TEMP:  31; 6HR MAX TEMP:  33;

EMPORIA        FOG       32  32 100 S13G21    29.93F VSB 1   WCI  22
6HR MIN TEMP:  31; 6HR MAX TEMP:  33; 6HR PCP: TRACE;

LAWRENCE       CLOUDY    34  27  75 S12G21    29.97F WCI  25
6HR MIN TEMP:  33; 6HR MAX TEMP:  34;

MANHATTAN      CLOUDY    33  31  92 S12       29.91F FOG     WCI  24
6HR MIN TEMP:  33; 6HR MAX TEMP:  35;

OLATHE IND     CLOUDY    33  28  81 S14       29.97F WCI  23
6HR MIN TEMP:  33; 6HR MAX TEMP:  33;

OLATHE EXE     CLOUDY    33  28  81 S14       29.97F WCI  23
6HR MIN TEMP:  33; 6HR MAX TEMP:  34;

SALINA         MOCLDY    33  27  78 S18G25    29.86F WCI  22
6HR MIN TEMP:  32; 6HR MAX TEMP:  35;

TOPEKA BILLARD CLOUDY    34  28  79 S10       29.95F WCI  26
6HR MIN TEMP:  34; 6HR MAX TEMP:  35;

TOPEKA FORBES  CLOUDY    34  29  82 S12       29.94F WCI  25
6HR MIN TEMP:  34; 6HR MAX TEMP:  35; 6HR PCP: TRACE;

$$



USA.gov is the U.S. government's official web portal to all federal, state and local government web resources and services.